Location: Alafon
(8.4500°N, 4.2333°E)
Time: 19:56:26
(UTC+00:00)

Envisat - Visible Passes

Search period start: 12 June 2021 00:00
Search period end: 22 June 2021 00:00
Orbit: 764 x 766 km, 98.1° (Epoch: 12 June)

Date Brightness Start Highest point End Pass type
(mag) Time Alt. Az. Time Alt. Az. Time Alt. Az.
12 Jun 4.6 04:15:52 10° NE 04:20:23 33° E 04:24:55 10° SSE visible
13 Jun 5.8 03:41:59 10° E 03:43:36 11° E 03:45:13 10° ESE visible
14 Jun 3.3 04:40:40 10° NNE 04:45:42 70° ESE 04:50:45 10° S visible
15 Jun 5.1 04:04:52 10° NE 04:08:56 24° E 04:13:00 10° SSE visible
17 Jun 3.9 04:29:21 10° NNE 04:34:15 50° E 04:39:10 10° S visible
18 Jun 5.5 03:54:06 10° ENE 03:57:29 18° E 04:00:51 10° SE visible
19 Jun 3.0 04:54:30 10° N 04:59:33 77° WNW 05:04:38 10° SSW visible
20 Jun 4.5 04:18:10 10° NE 04:22:48 37° E 04:27:27 10° SSE visible
21 Jun 5.7 03:43:47 10° ENE 03:46:01 13° E 03:48:15 10° SE visible
